EW9696 Timbaki GR current weather conditions

sailwx.info

Wind from 102

Air temperature 11.7° C
Dewpoint 9.2° C

Last reported at 2020-Jan-26 08:02 UTC.
Time now 2020-Jan-26 09:01 UTC

Location: N 35°04' E 024°46'.
View on Google Maps.

See reports from other nearby stations

  
Tides and Currents Weather Stations Pressure Air Temp Water Temp Dewpoint Dewpoint Depression Visibility Wind Speed Wind Dir Waves Ship Positions
date/time (UTC)wind fromknots sea level pressurealtimeterstation pressurevisibilityair tempwater tempwave heightnotes
2020-Jan-26 08:02 102 11.7
2020-Jan-26 07:57 038 11.7
2020-Jan-26 07:52 063 11.7
2020-Jan-26 07:47 101 11.1
2020-Jan-26 07:42 091 11.1
2020-Jan-26 07:37 077 10.6
2020-Jan-26 07:32 096 10.6
2020-Jan-26 07:27 104 10.6
2020-Jan-26 07:17 090 0 gusting 4 10.0
2020-Jan-26 07:07 091 10.0
2020-Jan-26 06:57 045 0 gusting 3 9.4
2020-Jan-26 06:52 061 0 gusting 3 9.4
2020-Jan-26 06:47 048 9.4
2020-Jan-26 06:42 044 9.4
2020-Jan-26 06:37 077 9.4
2020-Jan-26 06:32 087 0 gusting 5 9.4
2020-Jan-26 06:27 080 0 gusting 5 8.9
2020-Jan-26 06:22 084 0 gusting 4 8.9
2020-Jan-26 06:17 041 0 gusting 4 8.9
2020-Jan-26 06:12 094 0 gusting 4 8.9
2020-Jan-26 06:07 047 0 gusting 4 8.3
2020-Jan-26 06:02 092 0 gusting 4 8.3
2020-Jan-26 05:57 096 0 gusting 4 8.3
2020-Jan-26 05:52 091 1 gusting 4 8.3
2020-Jan-26 05:42 049 0 gusting 5 8.3
2020-Jan-26 05:32 045 1 gusting 6 8.3
2020-Jan-26 05:27 094 1 gusting 6 8.3
2020-Jan-26 05:22 091 0 gusting 5 8.3
2020-Jan-26 05:17 060 0 gusting 5 8.3
2020-Jan-26 05:12 084 1 gusting 5 8.3
2020-Jan-26 05:07 069 2 gusting 5 8.3
2020-Jan-26 05:02 063 1 gusting 5 7.8
2020-Jan-26 04:57 096 0 gusting 5 7.8
2020-Jan-26 04:52 074 7.8
2020-Jan-26 04:37 052 1 gusting 4 7.2
2020-Jan-26 04:32 045 2 gusting 5 7.2
2020-Jan-26 04:27 044 3 gusting 5 7.2
2020-Jan-26 04:22 051 2 gusting 4 7.2
2020-Jan-26 04:17 039 2 gusting 4 7.2
2020-Jan-26 04:12 042 1 gusting 4 7.2
2020-Jan-26 04:07 040 0 gusting 4 7.2
2020-Jan-26 04:02 085 0 gusting 4 7.2
2020-Jan-26 03:57 107 0 gusting 4 6.7
2020-Jan-26 03:52 092 0 gusting 4 6.7
2020-Jan-26 03:47 091 2 gusting 4 6.7
2020-Jan-26 03:42 046 2 gusting 3 6.7
2020-Jan-26 03:37 044 0 gusting 3 6.7
2020-Jan-26 03:32 039 0 gusting 2 6.7
2020-Jan-26 03:27 041 0 gusting 2 6.7
2020-Jan-26 03:22 042 6.7
2020-Jan-26 03:17 039 6.7
2020-Jan-26 03:12 038 0 gusting 4 6.7
2020-Jan-26 03:07 070 0 gusting 4 6.7
2020-Jan-26 03:02 055 6.7
2020-Jan-26 02:57 080 6.7
2020-Jan-26 02:52 049 7.2
2020-Jan-26 02:47 042 7.2
2020-Jan-26 02:42 086 7.2
2020-Jan-26 02:37 096 7.2
2020-Jan-26 02:32 036 7.2
2020-Jan-26 02:27 098 6.7
2020-Jan-26 02:22 044 0 gusting 3 6.7
2020-Jan-26 02:17 086 0 gusting 3 6.7
2020-Jan-26 02:12 079 0 gusting 4 6.7
2020-Jan-26 02:07 089 0 gusting 4 6.7
2020-Jan-26 02:02 057 0 gusting 3 6.7
2020-Jan-26 01:57 053 0 gusting 3 6.7
2020-Jan-26 01:52 046 0 gusting 1 6.7
2020-Jan-26 01:47 060 6.7
2020-Jan-26 01:42 038 6.7
2020-Jan-26 01:37 071 0 gusting 4 6.7
2020-Jan-26 01:32 056 1 gusting 4 6.7
2020-Jan-26 01:27 077 1 gusting 4 6.7
2020-Jan-26 01:22 089 1 gusting 4 6.7
2020-Jan-26 01:17 101 1 gusting 4 6.7
2020-Jan-26 01:12 089 0 gusting 3 6.7
2020-Jan-26 01:07 084 6.7
2020-Jan-26 00:57 134 0 gusting 2 6.7
2020-Jan-26 00:52 025 0 gusting 2 6.7
2020-Jan-26 00:47 026 0 gusting 2 6.7
2020-Jan-26 00:42 087 6.7
2020-Jan-26 00:37 089 6.7
2020-Jan-26 00:32 086 6.1
2020-Jan-26 00:27 053 0 gusting 4 6.1
2020-Jan-26 00:22 046 0 gusting 0 6.1
2020-Jan-26 00:17 055 0 gusting 0 6.1
2020-Jan-26 00:12 035 6.1
2020-Jan-26 00:07 048 6.1
2020-Jan-26 00:02 072 6.1
2020-Jan-25 23:57 051 0 gusting 2 6.1
2020-Jan-25 23:52 053 6.1
2020-Jan-25 23:47 025 6.1
2020-Jan-25 23:42 087 6.1
2020-Jan-25 23:37 050 6.7
2020-Jan-25 23:32 004 6.7
2020-Jan-25 23:27 089 6.7
2020-Jan-25 23:22 036 6.7
2020-Jan-25 23:17 061 0 gusting 3 6.1
2020-Jan-25 23:12 035 0 6.1
2020-Jan-25 23:07 050 6.7
2020-Jan-25 23:02 011 6.7
2020-Jan-25 22:57 130 6.7
2020-Jan-25 22:52 104 6.7
2020-Jan-25 22:47 091 6.7
2020-Jan-25 22:42 045 0 gusting 2 6.7
2020-Jan-25 22:37 089 0 gusting 2 6.7
2020-Jan-25 22:32 084 6.7
2020-Jan-25 22:27 087 6.7
2020-Jan-25 22:22 111 0 gusting 3 6.7
2020-Jan-25 22:17 056 0 gusting 3 6.7
2020-Jan-25 22:12 090 7.2
2020-Jan-25 22:07 094 0 gusting 4 7.2
2020-Jan-25 22:02 041 0 7.2
2020-Jan-25 21:57 082 7.2
2020-Jan-25 21:52 113 6.7
2020-Jan-25 21:47 088 6.7
2020-Jan-25 21:42 051 6.7
2020-Jan-25 21:37 065 7.2
2020-Jan-25 21:32 079 7.2
2020-Jan-25 21:27 078 7.2
2020-Jan-25 21:22 109 7.2
2020-Jan-25 21:17 085 6.7
2020-Jan-25 21:12 077 7.2
2020-Jan-25 21:07 056 7.2
2020-Jan-25 21:02 078 7.2
2020-Jan-25 20:57 054 7.2
2020-Jan-25 20:52 049 7.2
2020-Jan-25 20:47 044 7.2
2020-Jan-25 20:42 078 7.8
2020-Jan-25 20:37 056 7.8
2020-Jan-25 20:32 041 7.8
2020-Jan-25 20:27 098 8.3
2020-Jan-25 20:22 076 8.3
2020-Jan-25 20:17 053 8.3
2020-Jan-25 20:12 049 8.3
2020-Jan-25 20:07 075 8.3
2020-Jan-25 20:02 094 8.3
2020-Jan-25 19:57 078 8.3
2020-Jan-25 19:52 085 8.3
2020-Jan-25 19:47 041 8.3
2020-Jan-25 19:42 084 8.3
2020-Jan-25 19:37 093 8.9
2020-Jan-25 19:32 105 8.9
2020-Jan-25 19:27 079 8.9
2020-Jan-25 19:22 075 8.9
2020-Jan-25 19:17 086 8.9
2020-Jan-25 19:12 094 8.9
2020-Jan-25 19:07 060 8.9
2020-Jan-25 19:02 062 8.9
2020-Jan-25 18:57 086 8.9
2020-Jan-25 18:52 085 8.9
2020-Jan-25 18:47 077 8.9
2020-Jan-25 18:42 077 8.9
2020-Jan-25 18:37 047 8.9
2020-Jan-25 18:32 047 8.9
2020-Jan-25 18:27 047 8.9
2020-Jan-25 18:22 052 8.9
2020-Jan-25 18:17 052 8.9
2020-Jan-25 18:12 053 8.9
2020-Jan-25 18:07 049 8.9
2020-Jan-25 18:02 049 8.9
2020-Jan-25 17:57 050 8.9
2020-Jan-25 17:52 052 8.9
2020-Jan-25 17:47 047 8.9
2020-Jan-25 17:42 040 8.9
2020-Jan-25 17:37 053 8.9
2020-Jan-25 17:32 037 0 gusting 4 8.3
2020-Jan-25 17:27 349 1 gusting 4 8.9
2020-Jan-25 17:22 044 0 8.9
2020-Jan-25 17:17 043 8.9
2020-Jan-25 17:12 043 8.9
2020-Jan-25 17:07 043 8.9
2020-Jan-25 17:02 041 8.9
2020-Jan-25 16:57 041 8.9
2020-Jan-25 16:52 032 8.9
2020-Jan-25 16:47 031 8.9
2020-Jan-25 16:42 036 9.4
2020-Jan-25 16:37 047 10.0
2020-Jan-25 16:32 047 10.6
2020-Jan-25 16:27 047 10.6
2020-Jan-25 16:22 047 11.1
2020-Jan-25 16:17 047 11.7
2020-Jan-25 16:12 241 12.2
2020-Jan-25 16:07 241 12.8
2020-Jan-25 16:02 241 0 gusting 1 12.8
2020-Jan-25 15:57 222 0 gusting 1 12.8
2020-Jan-25 15:52 223 12.8
2020-Jan-25 15:47 224 0 gusting 3 13.3
2020-Jan-25 15:42 240 1 gusting 2 13.3
2020-Jan-25 15:37 237 1 gusting 2 13.3
2020-Jan-25 15:32 272 1 gusting 4 13.3
2020-Jan-25 15:27 271 0 gusting 4 13.3
2020-Jan-25 15:22 251 1 gusting 7 13.3
2020-Jan-25 15:17 256 3 gusting 7 13.9
2020-Jan-25 15:12 264 3 gusting 7 13.9
2020-Jan-25 15:07 250 3 gusting 7 13.9
2020-Jan-25 15:02 233 3 gusting 8 13.9
2020-Jan-25 14:57 219 4 gusting 8 13.9
2020-Jan-25 14:52 255 4 gusting 8 13.9
2020-Jan-25 14:47 248 4 gusting 8 14.4
2020-Jan-25 14:42 271 4 gusting 9 14.4
2020-Jan-25 14:37 257 3 gusting 9 14.4
2020-Jan-25 14:32 219 4 gusting 9 14.4
2020-Jan-25 14:27 237 5 gusting 9 14.4
2020-Jan-25 14:22 245 4 gusting 9 14.4
2020-Jan-25 14:17 229 4 gusting 9 14.4
2020-Jan-25 14:12 233 5 gusting 7 14.4
2020-Jan-25 14:07 235 4 gusting 7 14.4
2020-Jan-25 14:02 240 3 gusting 7 15.0
2020-Jan-25 13:57 248 3 gusting 7 14.4
2020-Jan-25 13:52 252 4 gusting 7 14.4
2020-Jan-25 13:47 234 4 gusting 7 14.4
2020-Jan-25 13:42 220 4 gusting 10 15.0
2020-Jan-25 13:37 215 5 gusting 10 14.4
2020-Jan-25 13:32 227 6 gusting 7 14.4
2020-Jan-25 13:27 231 5 gusting 7 14.4
2020-Jan-25 13:22 217 5 gusting 9 14.4
2020-Jan-25 13:17 248 5 gusting 9 14.4
2020-Jan-25 13:12 232 4 gusting 9 14.4
2020-Jan-25 13:07 209 5 gusting 9 15.0
2020-Jan-25 13:02 243 6 gusting 8 14.4
2020-Jan-25 12:57 245 6 gusting 8 14.4
2020-Jan-25 12:52 237 5 gusting 9 14.4
2020-Jan-25 12:47 243 5 gusting 9 14.4
2020-Jan-25 12:42 244 5 gusting 9 14.4
2020-Jan-25 12:37 226 6 gusting 9 14.4
2020-Jan-25 12:32 248 6 gusting 8 14.4
2020-Jan-25 12:27 248 5 gusting 8 14.4
2020-Jan-25 12:22 256 5 gusting 10 15.0
2020-Jan-25 12:17 259 5 gusting 10 14.4
2020-Jan-25 12:12 252 5 gusting 8 15.0
2020-Jan-25 12:07 233 6 gusting 8 14.4
2020-Jan-25 12:02 282 6 gusting 7 14.4
2020-Jan-25 11:57 226 5 gusting 7 14.4
2020-Jan-25 11:52 262 4 gusting 9 15.0
2020-Jan-25 11:47 199 4 gusting 9 15.0
2020-Jan-25 11:42 212 5 gusting 8 14.4
2020-Jan-25 11:37 224 5 gusting 8 14.4
2020-Jan-25 11:32 214 5 gusting 9 14.4
2020-Jan-25 11:27 212 5 gusting 9 14.4
2020-Jan-25 11:22 241 5 gusting 8 14.4
2020-Jan-25 11:17 240 4 gusting 8 14.4
2020-Jan-25 11:12 221 4 gusting 8 14.4
2020-Jan-25 11:07 216 5 gusting 8 14.4
2020-Jan-25 11:02 238 5 gusting 7 14.4
2020-Jan-25 10:57 238 4 gusting 7 14.4
2020-Jan-25 10:52 268 3 gusting 8 14.4
2020-Jan-25 10:47 229 4 gusting 8 14.4
2020-Jan-25 10:42 247 5 gusting 8 14.4
2020-Jan-25 10:37 231 4 gusting 8 14.4
2020-Jan-25 10:32 238 4 gusting 7 14.4
2020-Jan-25 10:27 249 4 gusting 7 14.4
2020-Jan-25 10:22 203 5 gusting 8 14.4
2020-Jan-25 10:17 217 4 gusting 8 14.4
2020-Jan-25 10:12 218 4 gusting 6 14.4
2020-Jan-25 10:07 219 3 gusting 6 14.4
2020-Jan-25 10:02 230 3 gusting 6 14.4
2020-Jan-25 09:57 239 3 gusting 6 14.4
2020-Jan-25 09:52 237 2 gusting 6 15.0
2020-Jan-25 09:47 214 2 gusting 6 15.0
2020-Jan-25 09:42 129 2 gusting 8 15.0
2020-Jan-25 09:37 259 2 gusting 8 14.4
2020-Jan-25 09:32 219 3 gusting 6 14.4
2020-Jan-25 09:27 250 3 gusting 6 14.4
2020-Jan-25 09:22 217 3 gusting 5 14.4
2020-Jan-25 09:17 227 2 gusting 5 14.4
2020-Jan-25 09:12 223 1 gusting 5 14.4
2020-Jan-25 09:07 271 0 gusting 5 15.0
2020-Jan-25 09:02 209 15.0
2020-Jan-25 08:57 221 0 gusting 4 15.0
2020-Jan-25 08:52 240 0 gusting 2 14.4
2020-Jan-25 08:47 226 0 gusting 2 15.0
2020-Jan-25 08:42 164 0 gusting 2 14.4
2020-Jan-25 08:37 231 0 gusting 2 13.3
2020-Jan-25 08:32 117 0 gusting 3 12.8
2020-Jan-25 08:27 103 0 gusting 3 12.8
2020-Jan-25 08:22 117 1 gusting 4 12.2
2020-Jan-25 08:17 102 1 gusting 4 11.7
2020-Jan-25 08:12 091 1 gusting 4 11.7
2020-Jan-25 08:07 101 1 gusting 4 11.1
2020-Jan-25 08:02 105 1 gusting 4 10.6
2020-Jan-25 07:57 086 1 gusting 4 10.0
2020-Jan-25 07:52 098 1 gusting 4 10.0
2020-Jan-25 07:47 093 1 gusting 4 9.4
2020-Jan-25 07:42 090 0 gusting 4 9.4
2020-Jan-25 07:37 113 0 gusting 4 8.9
2020-Jan-25 07:32 114 8.9
2020-Jan-25 07:27 084 8.3
2020-Jan-25 07:22 107 8.3
2020-Jan-25 07:17 094 7.8
2020-Jan-25 07:12 103 7.2
2020-Jan-25 07:07 105 6.7
2020-Jan-25 07:02 090 6.7
2020-Jan-25 06:57 051 6.1
2020-Jan-25 06:52 099 6.1
2020-Jan-25 06:47 056 5.6
2020-Jan-25 06:42 094 5.6
2020-Jan-25 06:37 119 5.0
2020-Jan-25 06:32 086 5.0
2020-Jan-25 06:27 084 5.0
2020-Jan-25 06:22 075 4.4
2020-Jan-25 06:17 065 4.4
2020-Jan-25 06:12 101 4.4
2020-Jan-25 06:07 079 3.9
2020-Jan-25 06:02 091 3.9
2020-Jan-25 05:57 044 3.9
2020-Jan-25 05:52 042 3.3
2020-Jan-25 05:47 085 3.3
2020-Jan-25 05:42 070 0 gusting 0 3.3
2020-Jan-25 05:37 072 3.3
2020-Jan-25 05:32 072 3.3
2020-Jan-25 05:27 075 2.8
2020-Jan-25 05:22 078 2.8
2020-Jan-25 05:17 041 2.8
2020-Jan-25 05:12 061 0 2.8
2020-Jan-25 05:07 046 3.3
2020-Jan-25 05:02 110 3.3
2020-Jan-25 04:57 076 3.3
2020-Jan-25 04:52 096 3.3
2020-Jan-25 04:47 089 3.3
2020-Jan-25 04:42 053 3.3
2020-Jan-25 04:37 049 3.3
2020-Jan-25 04:32 070 3.3
2020-Jan-25 04:27 091 3.3
2020-Jan-25 04:22 075 3.3
2020-Jan-25 04:17 089 3.3
2020-Jan-25 04:12 066 3.9
2020-Jan-25 04:07 092 3.9
2020-Jan-25 04:02 078 3.9
2020-Jan-25 03:57 056 3.9
2020-Jan-25 03:52 058 3.9
2020-Jan-25 03:47 051 3.9
2020-Jan-25 03:42 047 3.9
2020-Jan-25 03:37 044 3.9
2020-Jan-25 03:32 053 3.9
2020-Jan-25 03:27 049 3.9
2020-Jan-25 03:22 041 0 gusting 5 3.9
2020-Jan-25 03:17 049 0 gusting 5 3.9
2020-Jan-25 03:12 049 1 gusting 5 3.9
2020-Jan-25 03:07 046 1 gusting 5 3.9
2020-Jan-25 03:02 047 1 gusting 4 3.9
2020-Jan-25 02:57 044 1 gusting 4 3.9
2020-Jan-25 02:52 045 1 gusting 3 3.9
2020-Jan-25 02:47 033 3.9
2020-Jan-25 02:42 033 0 gusting 5 3.9
2020-Jan-25 02:37 038 0 gusting 5 3.9
2020-Jan-25 02:32 039 1 gusting 5 4.4
2020-Jan-25 02:27 045 2 gusting 5 4.4
2020-Jan-25 02:22 040 2 gusting 6 4.4
2020-Jan-25 02:17 053 3 gusting 6 3.9
2020-Jan-25 02:12 038 3 gusting 6 4.4
2020-Jan-25 02:07 043 3 gusting 6 3.9
2020-Jan-25 02:02 044 3 gusting 5 3.9
2020-Jan-25 01:57 040 3 gusting 5 3.9
2020-Jan-25 01:52 042 3 gusting 4 4.4
2020-Jan-25 01:47 043 0 gusting 4 4.4
2020-Jan-25 01:42 039 0 gusting 5 4.4
2020-Jan-25 01:37 051 1 gusting 5 4.4
2020-Jan-25 01:32 041 1 gusting 5 4.4
2020-Jan-25 01:27 054 1 gusting 5 5.0
2020-Jan-25 01:22 053 2 gusting 5 4.4
2020-Jan-25 01:17 058 2 gusting 5 4.4
2020-Jan-25 01:12 051 2 gusting 6 4.4
2020-Jan-25 01:07 051 1 gusting 6 4.4
2020-Jan-25 01:02 046 2 gusting 6 4.4
2020-Jan-25 00:57 058 3 gusting 6 4.4
2020-Jan-25 00:52 030 2 gusting 4 3.9
2020-Jan-25 00:47 049 2 gusting 4 3.9
2020-Jan-25 00:42 037 1 gusting 6 3.9
2020-Jan-25 00:37 049 2 gusting 6 3.9
2020-Jan-25 00:32 048 2 gusting 5 3.9
2020-Jan-25 00:27 055 3 gusting 5 3.9
2020-Jan-25 00:22 041 2 gusting 4 3.9
2020-Jan-25 00:17 051 1 gusting 4 3.9
2020-Jan-25 00:12 054 0 gusting 6 3.3
2020-Jan-25 00:07 053 1 gusting 6 3.3
2020-Jan-25 00:02 041 2 gusting 5 3.3
2020-Jan-24 23:57 053 1 gusting 5 3.3
2020-Jan-24 23:52 037 1 gusting 4 3.3
2020-Jan-24 23:47 054 0 gusting 4 3.3
2020-Jan-24 23:42 077 3.3
2020-Jan-24 23:37 086 0 gusting 4 3.3
2020-Jan-24 23:32 073 1 gusting 2 3.3
2020-Jan-24 23:27 039 0 gusting 2 3.3
2020-Jan-24 23:22 056 0 gusting 4 3.3
2020-Jan-24 23:17 054 3.3
2020-Jan-24 23:12 041 0 gusting 4 4.4
2020-Jan-24 23:07 074 0 gusting 4 5.0
2020-Jan-24 23:02 040 0 gusting 4 4.4
2020-Jan-24 22:57 037 0 gusting 4 4.4
2020-Jan-24 22:52 096 0 gusting 6 4.4
2020-Jan-24 22:47 041 0 gusting 6 5.6
2020-Jan-24 22:42 040 1 gusting 5 4.4
2020-Jan-24 22:37 058 2 gusting 5 4.4
2020-Jan-24 22:32 032 1 gusting 4 3.3
2020-Jan-24 22:27 034 0 gusting 4 3.3
2020-Jan-24 22:22 032 1 gusting 4 3.3
2020-Jan-24 22:17 049 2 gusting 4 3.3
2020-Jan-24 22:12 041 1 gusting 4 3.3
2020-Jan-24 22:07 035 0 gusting 4 3.9
2020-Jan-24 22:02 044 1 gusting 4 3.9
2020-Jan-24 21:57 047 1 gusting 4 4.4
2020-Jan-24 21:52 051 0 gusting 5 4.4
2020-Jan-24 21:47 039 0 gusting 5 3.3
2020-Jan-24 21:42 035 0 gusting 0 3.9
2020-Jan-24 21:37 020 4.4
2020-Jan-24 21:32 038 4.4
2020-Jan-24 21:27 087 4.4
2020-Jan-24 21:22 039 3.9
2020-Jan-24 21:17 023 3.9
2020-Jan-24 21:12 049 4.4
2020-Jan-24 21:07 049 4.4
2020-Jan-24 21:02 038 5.0
2020-Jan-24 20:57 056 1 gusting 6 4.4
2020-Jan-24 20:52 044 2 gusting 4 4.4
2020-Jan-24 20:47 046 1 gusting 4 4.4
2020-Jan-24 20:42 035 1 gusting 4 4.4
2020-Jan-24 20:37 044 1 gusting 4 4.4
2020-Jan-24 20:32 046 4.4
2020-Jan-24 20:27 070 4.4
2020-Jan-24 20:22 051 4.4
2020-Jan-24 20:17 046 4.4
2020-Jan-24 20:12 051 4.4
2020-Jan-24 20:07 052 3.9
2020-Jan-24 20:02 052 3.9
2020-Jan-24 19:57 052 3.9
2020-Jan-24 19:52 051 3.9
2020-Jan-24 19:47 031 3.9
2020-Jan-24 19:42 037 3.9
2020-Jan-24 19:37 358 4.4
2020-Jan-24 19:32 013 4.4
2020-Jan-24 19:27 318 4.4
2020-Jan-24 19:22 046 5.6
2020-Jan-24 19:17 030 5.6
2020-Jan-24 19:12 100 5.0
2020-Jan-24 19:07 047 4.4
2020-Jan-24 19:02 040 4.4
2020-Jan-24 18:57 045 4.4
2020-Jan-24 18:52 053 5.0
2020-Jan-24 18:47 039 5.6
2020-Jan-24 18:42 039 5.6
2020-Jan-24 18:37 039 6.1
2020-Jan-24 18:32 039 6.1
2020-Jan-24 18:27 039 6.7
2020-Jan-24 18:22 039 0 gusting 8 7.8
2020-Jan-24 18:17 110 2 gusting 8 7.8
2020-Jan-24 18:12 098 3 gusting 2 7.8
2020-Jan-24 18:07 091 0 gusting 2 7.2
2020-Jan-24 18:02 094 7.8
2020-Jan-24 17:57 084 7.8
2020-Jan-24 17:52 078 0 gusting 6 8.3
2020-Jan-24 17:47 088 8.3
2020-Jan-24 17:42 119 8.3
2020-Jan-24 17:37 044 8.9
2020-Jan-24 17:32 127 8.9
2020-Jan-24 17:27 102 0 gusting 6 8.9
2020-Jan-24 17:22 060 0 gusting 6 9.4
2020-Jan-24 17:17 166 8.9
2020-Jan-24 17:12 324 0 gusting 5 8.9
2020-Jan-24 17:07 101 1 gusting 5 8.9
2020-Jan-24 17:02 134 0 gusting 6 8.9
2020-Jan-24 16:57 083 0 gusting 6 9.4
2020-Jan-24 16:52 124 2 gusting 3 9.4
2020-Jan-24 16:47 144 2 gusting 3 9.4
2020-Jan-24 16:42 102 0 gusting 6 9.4
2020-Jan-24 16:37 150 0 gusting 6 10.0
2020-Jan-24 16:32 136 0 gusting 6 10.0
2020-Jan-24 16:27 147 1 gusting 6 10.0
2020-Jan-24 16:22 068 2 gusting 13 10.0
2020-Jan-24 16:17 315 4 gusting 13 10.0
2020-Jan-24 16:12 318 6 gusting 19 10.0
2020-Jan-24 16:07 355 7 gusting 19 10.0
2020-Jan-24 16:02 340 9 gusting 19 10.0
2020-Jan-24 15:57 333 10 gusting 19 10.6
2020-Jan-24 15:52 336 9 gusting 18 10.6
2020-Jan-24 15:47 340 9 gusting 18 10.6
2020-Jan-24 15:42 304 10 gusting 18 10.6
2020-Jan-24 15:37 335 10 gusting 18 10.6
2020-Jan-24 15:32 357 9 gusting 18 10.6
2020-Jan-24 15:27 347 10 gusting 18 11.1
2020-Jan-24 15:22 309 11 gusting 19 11.1
2020-Jan-24 15:17 311 12 gusting 19 11.1
2020-Jan-24 15:12 318 12 gusting 16 11.1
2020-Jan-24 15:07 333 10 gusting 16 11.7
2020-Jan-24 15:02 321 10 gusting 20 11.7
2020-Jan-24 14:57 309 10 gusting 20 11.7
2020-Jan-24 14:52 321 10 gusting 18 11.7
2020-Jan-24 14:47 330 10 gusting 18 11.7
2020-Jan-24 14:42 340 9 gusting 16 11.7
2020-Jan-24 14:37 355 9 gusting 16 12.2
2020-Jan-24 14:32 306 9 gusting 18 12.2
2020-Jan-24 14:27 328 8 gusting 18 12.2
2020-Jan-24 14:22 320 10 gusting 18 12.2
2020-Jan-24 14:17 332 10 gusting 18 12.2
2020-Jan-24 14:12 345 10 gusting 19 12.8
2020-Jan-24 14:07 317 10 gusting 19 12.8
2020-Jan-24 14:02 334 10 gusting 19 12.8
2020-Jan-24 13:57 332 10 gusting 19 12.8
2020-Jan-24 13:52 294 10 gusting 21 12.8
2020-Jan-24 13:47 336 11 gusting 21 12.8
2020-Jan-24 13:42 325 11 gusting 20 12.8
2020-Jan-24 13:37 326 10 gusting 20 12.8
2020-Jan-24 13:32 331 10 gusting 19 12.8
2020-Jan-24 13:27 320 10 gusting 19 12.8
2020-Jan-24 13:22 023 10 gusting 19 12.8
2020-Jan-24 13:17 311 10 gusting 19 12.8
2020-Jan-24 13:12 003 11 gusting 23 12.8
2020-Jan-24 13:07 328 12 gusting 23 12.8
2020-Jan-24 13:02 326 13 gusting 23 12.8
2020-Jan-24 12:57 337 13 gusting 23 12.8
2020-Jan-24 12:52 349 13 gusting 21 12.8
2020-Jan-24 12:47 314 13 gusting 21 12.8
2020-Jan-24 12:42 319 13 gusting 22 13.3
2020-Jan-24 12:37 347 13 gusting 22 12.8
2020-Jan-24 12:32 347 13 gusting 24 13.3
2020-Jan-24 12:27 326 13 gusting 24 12.8
2020-Jan-24 12:22 335 13 gusting 20 12.8
2020-Jan-24 12:17 354 13 gusting 20 13.3
2020-Jan-24 12:12 345 13 gusting 26 13.3
2020-Jan-24 12:07 011 13 gusting 26 13.3
2020-Jan-24 12:02 305 13 gusting 22 13.3
2020-Jan-24 11:57 324 13 gusting 22 13.3
2020-Jan-24 11:52 319 12 gusting 29 13.3
2020-Jan-24 11:47 338 13 gusting 29 13.3
2020-Jan-24 11:42 316 15 gusting 25 12.8
2020-Jan-24 11:37 324 14 gusting 25 13.3
2020-Jan-24 11:32 309 13 gusting 22 13.3
2020-Jan-24 11:27 330 11 gusting 22 13.3
2020-Jan-24 11:22 321 10 gusting 21 13.3
2020-Jan-24 11:17 304 10 gusting 21 13.3
2020-Jan-24 11:12 335 11 gusting 23 13.3
2020-Jan-24 11:07 341 12 gusting 23 13.3
2020-Jan-24 11:02 333 13 gusting 22 13.3
2020-Jan-24 10:57 342 13 gusting 22 13.3
2020-Jan-24 10:52 330 13 gusting 25 13.3
2020-Jan-24 10:47 342 13 gusting 25 13.3
2020-Jan-24 10:42 316 12 gusting 21 13.3
2020-Jan-24 10:37 311 12 gusting 21 13.3
2020-Jan-24 10:32 337 13 gusting 22 13.3
2020-Jan-24 10:27 330 13 gusting 22 13.3
2020-Jan-24 10:22 319 13 gusting 21 13.3
2020-Jan-24 10:17 337 11 gusting 21 13.3
2020-Jan-24 10:12 307 10 gusting 20 13.3
2020-Jan-24 10:07 335 10 gusting 20 13.3
2020-Jan-24 10:02 326 9 gusting 19 13.3
2020-Jan-24 09:57 288 8 gusting 19 13.3
2020-Jan-24 09:52 311 10 gusting 23 13.3
2020-Jan-24 09:47 319 12 gusting 23 13.3
2020-Jan-24 09:42 312 12 gusting 24 12.8
2020-Jan-24 09:37 336 12 gusting 24 12.8
2020-Jan-24 09:32 350 11 gusting 20 12.8
2020-Jan-24 09:27 324 11 gusting 20 12.8
2020-Jan-24 09:22 321 11 gusting 21 12.8
2020-Jan-24 09:17 314 12 gusting 21 12.8
2020-Jan-24 09:12 323 12 gusting 25 12.8
2020-Jan-24 09:07 340 12 gusting 25 12.8
2020-Jan-24 09:02 12.8